Weather History for Puebla, Pue., Mexico

Change the Weather History Date:

Sunday, August 11, 2013

  Actual Average Record
Temperature  
Mean Temperature 64 °F -  
Max Temperature 73 °F 70 °F - ()
Min Temperature 55 °F 51 °F - ()
Degree Days  
Heating Degree Days 1    
Growing Degree Days 14 (Base 50)    
Moisture  
Dew Point 54 °F    
Average Humidity 78    
Maximum Humidity 100    
Minimum Humidity 22    
Precipitation  
Precipitation 0.20 in - - ()
Sea Level Pressure  
Sea Level Pressure 30.20 in    
Wind  
Wind Speed 3 mph ()    
Max Wind Speed 14 mph    
Max Gust Speed -    
Visibility 5.8 miles    
Events Rain    
T = Trace of Precipitation, MM = Missing Value Source: Averaged Metar Reports

Daily Weather History Graph

Daily Weather History Graph

Search for Another Location

Airport:

Trip Planner

Search our weather history database for the weather conditions in past years. The results will help you decide how hot, cold, wet, or windy it might be!

Date:

Astronomy

Aug. 11, 2013 Rise Set
Actual Time 7:12 AM CDT 8:02 PM CDT
Civil Twilight 6:49 AM CDT 8:25 PM CDT
Nautical Twilight 6:22 AM CDT 8:52 PM CDT
Astronomical Twilight 5:55 AM CDT 9:19 PM CDT
Moon 11:13 AM CDT (8/11) 11:11 PM CDT (8/11)
Length of Visible Light 13h 35m
Length of Day
12h 49m
Waxing Crescent, 22% of the Moon is Illuminated
Aug 11
Waxing Crescent
Aug 14
First Quarter
Aug 20
Full
Aug 28
Last Quarter
Sep 5
New

Hourly Weather History & Observations

Time (CDT) Temp. Dew Point Humidity Pressure Visibility Wind Dir Wind Speed Gust Speed Precip Events Conditions
12:50 AM 59 °F 52 °F 72% 29.81 in 3 mi ESE 4.5 mph - -   Mostly Cloudy
3:50 AM 59 °F 55 °F 82% 29.85 in 3 mi Calm Calm - - Rain Light Drizzle
5:55 AM 57.2 °F 53.6 °F 88% 30.33 in 5.0 mi SSW 3.5 mph - N/A   Mostly Cloudy
6:45 AM 57.2 °F 53.6 °F 88% 30.34 in 5.0 mi Calm Calm - N/A   Overcast
6:50 AM 59 °F 54 °F 78% 29.90 in 3 mi Calm Calm - -   Partly Cloudy
7:42 AM 55.4 °F 53.6 °F 94% 30.35 in 5.0 mi Calm Calm - N/A   Overcast
8:45 AM 59.0 °F 55.4 °F 88% 30.37 in 6.0 mi North 2.3 mph - N/A   Overcast
9:43 AM 62.6 °F 53.6 °F 72% 30.37 in 7.0 mi SSW 2.3 mph - N/A   Mostly Cloudy
9:50 AM 64 °F 56 °F 67% 29.94 in 3 mi NNW 2.2 mph - -   Haze
10:41 AM 64.4 °F 53.6 °F 68% 30.37 in 8.0 mi Calm Calm - N/A   Mostly Cloudy
11:45 AM 66.2 °F 51.8 °F 60% 30.36 in 8.0 mi South 8.1 mph - N/A   Mostly Cloudy
12:41 PM 68.0 °F 55.4 °F 64% 30.35 in 8.0 mi SSW 5.8 mph - N/A   Overcast
12:50 PM 71 °F 41 °F 22% 29.89 in 3 mi South 2.2 mph - -   Haze
1:45 PM 69.8 °F 50.0 °F 49% 30.33 in 8.0 mi SE 9.2 mph - N/A   Mostly Cloudy
2:45 PM 69.8 °F 53.6 °F 56% 30.30 in 8.0 mi South 9.2 mph - N/A   Mostly Cloudy
3:40 PM 61 °F 55 °F 76% 29.79 in 12 mi ENE 4.5 mph - - Rain Light Drizzle
3:46 PM 60.8 °F 55.4 °F 82% 30.29 in 5.0 mi East 13.8 mph - N/A   Overcast
4:42 PM 57.2 °F 51.8 °F 82% 30.31 in 5.0 mi SE 6.9 mph - N/A Rain Rain
5:42 PM 57.2 °F 53.6 °F 88% 30.32 in 5.0 mi SSW 9.2 mph - N/A Rain Rain
6:40 PM 60 °F 58 °F 89% 29.83 in 6 mi South 2.2 mph - - Rain Light Drizzle
6:42 PM 57.2 °F 53.6 °F 88% 30.34 in 4.0 mi SW 11.5 mph - N/A Rain Rain
7:44 PM 57.2 °F 53.6 °F 88% 30.35 in 6.0 mi South 4.6 mph - N/A Rain Light Rain
8:42 PM 55.4 °F 55.4 °F 100% 30.37 in 7.0 mi North 3.5 mph - N/A Rain Light Rain
9:45 PM 55.4 °F 55.4 °F 100% 30.38 in 8.0 mi North 2.3 mph - N/A   Overcast
9:58 PM 58 °F 55 °F 85% 29.88 in 3 mi Calm Calm - - Rain Light Rain
10:40 PM 55.4 °F 53.6 °F 94% 30.40 in 8.0 mi Calm Calm - N/A   Mostly Cloudy